TimeCST,TemperatureF,Dew PointF,Humidity,Sea Level PressureIn,VisibilityMPH,Wind Direction,Wind SpeedMPH,Gust SpeedMPH,PrecipitationIn,Events,Conditions,WindDirDegrees,DateUTC
12:00 AM,64.4,62.6,94,30.30,6.2,NE,6.9,-,N/A,,Light Drizzle,40,2013-08-19 06:00:00
12:08 AM,-9999,-9999,N/A,-9999,6.2,NNE,9.2,-,N/A,,Mostly Cloudy,30,2013-08-19 06:08:00
1:00 AM,64.4,62.6,94,30.27,6.2,NE,11.5,-,N/A,,Overcast,40,2013-08-19 07:00:00
2:00 AM,62.6,62.6,100,30.27,6.2,NE,6.9,-,N/A,,Mostly Cloudy,40,2013-08-19 08:00:00
3:00 AM,62.6,60.8,94,30.24,6.2,North,6.9,-,N/A,,Mostly Cloudy,360,2013-08-19 09:00:00
4:00 AM,62.6,60.8,94,30.24,6.2,North,9.2,-,N/A,,Mostly Cloudy,360,2013-08-19 10:00:00
5:00 AM,62.6,60.8,94,30.24,6.2,North,9.2,-,N/A,,Mostly Cloudy,360,2013-08-19 11:00:00
6:00 AM,63,60,89,29.97,25,North,9.2,,,,Partly Cloudy,0,2013-08-19 12:00:00
6:00 AM,62.6,60.8,94,30.24,6.2,North,9.2,-,N/A,,Mostly Cloudy,360,2013-08-19 12:00:00
7:00 AM,62.6,60.8,94,30.24,6.2,North,6.9,-,N/A,,Mostly Cloudy,360,2013-08-19 13:00:00
8:00 AM,68.0,60.8,78,30.27,6.2,North,9.2,-,N/A,,Mostly Cloudy,360,2013-08-19 14:00:00
9:00 AM,68.0,59.0,73,30.27,6.2,North,9.2,-,N/A,,Scattered Clouds,360,2013-08-19 15:00:00
10:00 AM,71.6,59.0,64,30.27,6.2,North,6.9,-,N/A,,Mostly Cloudy,360,2013-08-19 16:00:00
11:00 AM,75.2,60.8,61,30.27,6.2,NNE,9.2,-,N/A,,Mostly Cloudy,30,2013-08-19 17:00:00
12:00 PM,75.2,62.6,65,30.24,6.2,North,11.5,-,N/A,,Scattered Clouds,360,2013-08-19 18:00:00
12:35 PM,-9999,-9999,N/A,-9999,6.2,NE,9.2,-,N/A,Thunderstorm,Thunderstorm,50,2013-08-19 18:35:00
1:00 PM,75.2,60.8,61,30.21,6.2,NNE,11.5,-,N/A,Thunderstorm,Thunderstorm,20,2013-08-19 19:00:00
1:08 PM,-9999,-9999,N/A,-9999,6.2,NNE,9.2,-,N/A,Rain-Thunderstorm,Light Thunderstorms and Rain,20,2013-08-19 19:08:00
1:23 PM,-9999,-9999,N/A,-9999,3.7,East,6.9,-,N/A,Rain-Thunderstorm,Thunderstorms and Rain,90,2013-08-19 19:23:00
2:00 PM,68.0,-9999,N/A,30.21,1.9,ESE,4.6,-,N/A,Rain-Thunderstorm,Thunderstorms and Rain,120,2013-08-19 20:00:00
2:27 PM,-9999,-9999,N/A,-9999,6.2,SSW,4.6,-,N/A,Rain-Thunderstorm,Thunderstorms and Rain,200,2013-08-19 20:27:00
3:00 PM,69.8,64.4,83,30.18,6.2,Variable,3.5,-,N/A,,Light Drizzle,0,2013-08-19 21:00:00
4:00 PM,69.8,64.4,83,30.18,6.2,NE,6.9,-,N/A,Rain-Thunderstorm,Thunderstorms and Rain,50,2013-08-19 22:00:00
4:36 PM,-9999,-9999,N/A,-9999,6.2,Variable,2.3,-,N/A,,Mostly Cloudy,0,2013-08-19 22:36:00
5:00 PM,69.8,62.6,78,30.15,6.2,North,4.6,-,N/A,,Scattered Clouds,360,2013-08-19 23:00:00
6:00 PM,71.6,64.4,78,-9999,6.2,Calm,Calm,-,N/A,,Mostly Cloudy,0,2013-08-20 00:00:00
7:00 PM,69.8,64.4,83,30.21,6.2,North,6.9,-,N/A,,Scattered Clouds,360,2013-08-20 01:00:00
8:00 PM,68.0,64.4,88,30.21,6.2,North,6.9,-,N/A,,Scattered Clouds,360,2013-08-20 02:00:00
9:00 PM,68.0,64.4,88,30.24,6.2,North,11.5,-,N/A,,Scattered Clouds,360,2013-08-20 03:00:00
10:00 PM,66.2,62.6,88,30.27,6.2,NNE,6.9,-,N/A,,Scattered Clouds,20,2013-08-20 04:00:00
10:35 PM,-9999,-9999,N/A,-9999,6.2,North,13.8,-,N/A,Thunderstorm,Thunderstorm,360,2013-08-20 04:35:00
11:00 PM,66.2,62.6,88,30.27,6.2,North,13.8,-,N/A,,Scattered Clouds,360,2013-08-20 05:00:00